Weather History for Tapachula Airport, Mexico

Change the Weather History Date:

Friday, September 20, 2013

  Actual Average Record
Temperature  
Mean Temperature 81 °F -  
Max Temperature 87 °F 86 °F 89 °F (1996)
Min Temperature 75 °F 73 °F 73 °F (1997)
Cooling Degree Days 16    
Growing Degree Days 31 (Base 50)    
Moisture  
Dew Point 75 °F    
Average Humidity 84    
Maximum Humidity 94    
Minimum Humidity 66    
Precipitation  
Precipitation 0.00 in - - ()
Sea Level Pressure  
Sea Level Pressure 29.86 in    
Wind  
Wind Speed 1 mph ()    
Max Wind Speed 12 mph    
Max Gust Speed -    
Visibility 11.9 miles    
Events      
Averages and records for this station are not official NWS values.
T = Trace of Precipitation, MM = Missing Value Source: Averaged Metar Reports

Daily Weather History Graph

Daily Weather History Graph

Search for Another Location

Airport:

Trip Planner

Search our weather history database for the weather conditions in past years. The results will help you decide how hot, cold, wet, or windy it might be!

Date:

Astronomy

Sep. 20, 2013 Rise Set
Actual Time 6:58 AM CDT 7:06 PM CDT
Civil Twilight 6:37 AM CDT 7:28 PM CDT
Nautical Twilight 6:12 AM CDT 7:53 PM CDT
Astronomical Twilight 5:47 AM CDT 8:18 PM CDT
Moon 8:04 PM CDT (9/20) 7:54 AM CDT (9/20)
Length of Visible Light 12h 51m
Length of Day
12h 08m
Full, 98% of the Moon is Illuminated
Sep 20
Full
Sep 26
Last Quarter
Oct 4
New
Oct 11
First Quarter
Oct 18
Full

Hourly Weather History & Observations

Time (CDT) Temp. Heat Index Dew Point Humidity Pressure Visibility Wind Dir Wind Speed Gust Speed Precip Events Conditions
12:47 AM 77.0 °F - 75.2 °F 94% 29.87 in 12.0 mi Calm Calm - N/A   Mostly Cloudy
1:41 AM 77.0 °F - 75.2 °F 94% 29.89 in 12.0 mi Calm Calm - N/A   Mostly Cloudy
2:45 AM 77.0 °F - 75.2 °F 94% 29.89 in 12.0 mi Calm Calm - N/A   Mostly Cloudy
3:48 AM 77.0 °F - 75.2 °F 94% 29.84 in 15.0 mi Calm Calm - N/A   Mostly Cloudy
4:40 AM 77.0 °F - 75.2 °F 94% 29.87 in 15.0 mi Calm Calm - N/A   Mostly Cloudy
5:40 AM 75.2 °F - 73.4 °F 94% 29.87 in 15.0 mi East 4.6 mph - N/A   Mostly Cloudy
6:42 AM 75.2 °F - 73.4 °F 94% 29.84 in 15.0 mi Calm Calm - N/A   Mostly Cloudy
7:43 AM 75.2 °F - 73.4 °F 94% 29.89 in 15.0 mi Calm Calm - N/A   Scattered Clouds
8:40 AM 78.8 °F - 75.2 °F 89% 29.91 in 15.0 mi Calm Calm - N/A   Mostly Cloudy
9:45 AM 82.4 °F 89.5 °F 75.2 °F 79% 29.86 in 15.0 mi Calm Calm - N/A   Scattered Clouds
10:46 AM 84.2 °F 92.3 °F 75.2 °F 74% 29.92 in 15.0 mi Calm Calm - N/A   Scattered Clouds
11:41 AM 86.0 °F 95.1 °F 75.2 °F 70% 29.91 in 15.0 mi Calm Calm - N/A   Mostly Cloudy
12:40 PM 87.8 °F 97.6 °F 75.2 °F 66% 29.81 in 10.0 mi Calm Calm - N/A   Mostly Cloudy
1:41 PM 86.0 °F 95.1 °F 75.2 °F 70% 29.86 in 10.0 mi WSW 11.5 mph - N/A   Scattered Clouds
2:40 PM 86.0 °F 96.9 °F 77.0 °F 74% 29.85 in 10.0 mi West 9.2 mph - N/A   Scattered Clouds
3:45 PM 84.2 °F 94.1 °F 77.0 °F 79% 29.80 in 10.0 mi WSW 11.5 mph - N/A   Scattered Clouds
4:40 PM 84.2 °F 94.1 °F 77.0 °F 79% 29.83 in 10.0 mi Calm Calm - N/A   Scattered Clouds
5:40 PM 84.2 °F 94.1 °F 77.0 °F 79% 29.80 in 10.0 mi SW 8.1 mph - N/A   Scattered Clouds
6:43 PM 82.4 °F 89.5 °F 75.2 °F 79% 29.78 in 10.0 mi Calm Calm - N/A   Scattered Clouds
7:41 PM 82.4 °F 90.9 °F 77.0 °F 84% 29.83 in 10.0 mi Calm Calm - N/A   Scattered Clouds
8:43 PM 80.6 °F 87.1 °F 77.0 °F 89% 29.84 in 10.0 mi Calm Calm - N/A   Scattered Clouds
9:50 PM 80.6 °F 86.2 °F 75.2 °F 84% 29.82 in 8.0 mi Calm Calm - N/A   Scattered Clouds
10:41 PM 80.6 °F 86.2 °F 75.2 °F 84% 29.88 in 8.0 mi Calm Calm - N/A   Scattered Clouds
11:40 PM 80.6 °F 86.2 °F 75.2 °F 84% 29.88 in 8.0 mi Calm Calm - N/A   Scattered Clouds